This demonstration page uses our WeatherBlox Daily Observations layout. Learn more.

Left ArrowRight Arrow

Hourly Observations for November 28, 2022

Temp ( °F °C ) Dew Point ( °F °C ) Humidity (%) Winds ( mph kmh ) Pressure ( in mb ) Visibility ( mi km ) Precip ( " mm )
12:52 am 00:52 Clear 24 -4.4 19 -7.2 81 81 S 7 11 29.87 1011 10 16 0.00 0.00
1:52 am 01:52 Mostly Clear 24 -4.4 19 -7.2 81 81 SSE 6 9 29.86 1011 10 16 0.00 0.00
2:52 am 02:52 Clear 25 -3.9 19 -7.2 78 78 SSE 7 11 29.85 1011 10 16 0.00 0.00
3:52 am 03:52 Clear 24 -4.4 19 -7.2 81 81 SSE 10 17 29.83 1010 10 16 0.00 0.00
4:52 am 04:52 Mostly Clear 24 -4.4 19 -7.2 81 81 SSE 8 13 29.82 1010 10 16 0.00 0.00
5:52 am 05:52 Mostly Clear 24 -4.4 20 -6.7 84 84 SSE 9 15 29.80 1009 10 16 0.00 0.00
6:52 am 06:52 Partly Cloudy 28 -2.2 22 -5.6 77 77 S 14 22 29.80 1009 10 16 0.00 0.00
7:52 am 07:52 Mostly Cloudy 29 -1.7 22 -5.6 75 75 SSE 12 19 29.80 1009 10 16 0.00 0.00
8:52 am 08:52 Mostly Cloudy 31 -0.6 24 -4.4 75 75 SSE 14 22 29.80 1009 10 16 0.00 0.00
9:52 am 09:52 Mostly Cloudy 36 2.2 25 -3.9 64 64 SSE 13 20 29.78 1008 10 16 0.00 0.00
10:52 am 10:52 Mostly Cloudy 43 6.1 27 -2.8 53 53 S 14 22 29.77 1008 10 16 0.00 0.00
11:52 am 11:52 Mostly Cloudy N/A N/A N/A SSW 17 28 29.77 1008 N/A 0.00 0.00
12:52 pm 12:52 Partly Cloudy 52 11.1 28 -2.2 39 39 S 18 30 29.71 1006 10 16 0.00 0.00
1:52 pm 13:52 Partly Cloudy 53 11.7 29 -1.7 39 39 S 17 28 29.68 1005 10 16 0.00 0.00
2:52 pm 14:52 Partly Cloudy 54 12.2 30 -1.1 40 40 S 17 28 29.66 1005 10 16 0.00 0.00
3:52 pm 15:52 Partly Cloudy 52 11.1 32 0 46 46 S 13 20 29.66 1004 10 16 0.00 0.00
4:52 pm 16:52 Mostly Cloudy 50 10 32 0 50 50 S 10 17 29.66 1005 10 16 0.00 0.00
5:52 pm 17:52 Mostly Cloudy 45 7.2 30 -1.1 55 55 SSE 9 15 29.68 1005 10 16 0.00 0.00
6:52 pm 18:52 Mostly Cloudy 46 7.8 29 -1.7 51 51 S 12 19 29.67 1005 10 16 0.00 0.00
7:52 pm 19:52 Mostly Cloudy 39 3.9 28 -2.2 64 64 NNE 6 9 29.71 1006 10 16 0.00 0.00
8:52 pm 20:52 Mostly Cloudy 36 2.2 28 -2.2 73 73 NNW 6 9 29.72 1006 10 16 0.00 0.00
9:52 pm 21:52 Mostly Cloudy 35 1.7 27 -2.8 72 72 NNW 3 6 29.69 1006 10 16 0.00 0.00
10:52 pm 22:52 Cloudy 40 4.4 28 -2.2 62 62 Calm 29.66 1004 10 16 0.00 0.00
11:52 pm 23:52 Mostly Cloudy 37 2.8 28 -2.2 70 70 NW 6 9 29.67 1005 10 16 0.00 0.00

Powered by AerisWeather